Date String (YYYY-MM-DD hh:mm:ss) UTC,Instrument flags,Ambient pressure (hPa),Sample flow (lpm),Bypass flow (lpm),Sample temperature (°C),Ambient temperature (°C),ASC tube jacket temperature (°C),LED temperature (°C),Box temperature (°C),Sample RH (%),Span deviation,Mass concentration (μg/m³),Mass concentration (μg/m³),Mass concentration (μg/m³)
DateTimeUTC,F1_M11,P_M11,Q1_M11,Q2_M11,T1_M11,T2_M11,T3_M11,T4_M11,T5_M11,U1_M11,ZSPAN_M11,X0_M11,X2_M11,X1_M11
2023-03-13 13:00:00,,0826.1,4.99,0.00,22.5,20.7,00.0,31.3,24.1,11.8,-000.5,0010.29,0005.70,0005.42
2023-03-13 13:01:00,,0826.0,5.00,0.00,22.4,20.7,00.0,31.2,24.1,11.8,-000.5,0010.77,0005.73,0005.42
2023-03-13 13:02:00,,0826.0,5.00,0.00,22.4,20.6,00.0,31.2,24.1,11.9,-000.8,0010.79,0005.75,0005.42
2023-03-13 13:03:00,,0826.0,4.99,0.00,22.4,20.7,00.0,31.2,24.1,11.9,-001.0,0010.86,0005.76,0005.42
2023-03-13 13:04:00,,0826.0,5.01,0.00,22.4,21.6,00.0,31.2,24.3,11.8,-000.9,0011.48,0005.78,0005.42
2023-03-13 13:05:00,,0826.0,5.00,0.00,22.6,22.6,00.0,31.2,24.5,11.8,-000.5,0011.74,0005.80,0005.43
2023-03-13 13:06:00,,0826.0,5.00,0.00,22.6,23.0,00.0,31.2,24.6,11.7,-000.1,0012.63,0005.82,0005.44
2023-03-13 13:07:00,,0826.0,5.03,0.00,22.7,22.6,00.0,31.2,24.5,11.7,0000.4,0012.56,0005.83,0005.45
2023-03-13 13:08:00,,0826.0,5.00,0.00,22.7,22.2,00.0,31.3,24.5,11.7,0000.1,0011.96,0005.82,0005.45
2023-03-13 13:09:00,,0826.0,5.00,0.00,22.6,21.9,00.0,31.3,24.4,11.7,0000.4,0011.69,0005.83,0005.45
2023-03-13 13:10:00,,0826.0,5.00,0.00,22.6,21.6,00.0,31.3,24.4,11.7,0000.4,0011.04,0005.81,0005.45
2023-03-13 13:11:00,,0825.9,5.00,0.00,22.6,21.4,00.0,31.3,24.3,11.7,0000.2,0010.97,0005.82,0005.47
2023-03-13 13:12:00,,0826.0,5.00,0.00,22.6,21.2,00.0,31.3,24.3,11.7,0000.4,0010.47,0005.80,0005.48
2023-03-13 13:13:00,,0826.0,4.99,0.00,22.6,21.1,00.0,31.3,24.2,11.7,0000.9,0010.17,0005.77,0005.48
2023-03-13 13:14:00,,0826.0,4.99,0.00,22.5,21.0,00.0,31.3,24.2,11.7,0001.3,0010.12,0005.78,0005.49
2023-03-13 13:15:00,,0826.0,5.01,0.00,22.5,20.9,00.0,31.3,24.1,11.7,0000.9,0009.76,0005.76,0005.50
2023-03-13 13:16:00,,0826.0,5.00,0.00,22.5,20.8,00.0,31.3,24.1,11.7,0000.7,0009.21,0005.78,0005.50
2023-03-13 13:17:00,,0826.0,5.00,0.00,22.4,20.7,00.0,31.3,24.1,11.8,-000.0,0008.69,0005.77,0005.50
2023-03-13 13:18:00,,0826.0,5.00,0.00,22.4,20.7,00.0,31.2,24.1,11.8,-000.7,0008.25,0005.76,0005.50
2023-03-13 13:19:00,,0826.0,5.00,0.00,22.4,20.6,00.0,31.2,24.1,11.9,-000.9,0008.33,0005.80,0005.52
2023-03-13 13:20:00,,0826.0,5.00,0.00,22.4,20.5,00.0,31.2,24.0,11.9,-000.9,0008.59,0005.79,0005.53
2023-03-13 13:21:00,,0826.0,5.00,0.00,22.4,21.0,00.0,31.2,24.1,11.9,-000.8,0008.77,0005.79,0005.53
2023-03-13 13:22:00,,0826.0,4.98,0.00,22.5,22.0,00.0,31.2,24.4,11.9,-000.8,0008.92,0005.80,0005.53
2023-03-13 13:23:00,,0826.0,5.00,0.00,22.6,22.8,00.0,31.2,24.6,11.9,-000.9,0009.38,0005.84,0005.53
2023-03-13 13:24:00,,0826.0,5.00,0.00,22.6,22.7,00.0,31.2,24.6,11.8,-000.8,0009.46,0005.86,0005.53
2023-03-13 13:25:00,,0826.0,5.00,0.00,22.6,22.3,00.0,31.2,24.5,11.8,-001.6,0009.42,0005.86,0005.54
2023-03-13 13:26:00,,0826.0,5.00,0.00,22.6,21.9,00.0,31.3,24.4,11.9,-001.5,0009.49,0005.89,0005.53
2023-03-13 13:27:00,,0826.0,5.00,0.00,22.6,21.6,00.0,31.3,24.4,11.9,-001.1,0009.41,0005.86,0005.52
2023-03-13 13:28:00,,0826.0,5.01,0.00,22.6,21.4,00.0,31.3,24.3,11.9,-000.5,0009.44,0005.88,0005.52
2023-03-13 13:29:00,,0826.0,5.01,0.00,22.6,21.2,00.0,31.3,24.3,12.0,-000.2,0009.43,0005.89,0005.52
2023-03-13 13:30:00,,0826.0,5.00,0.00,22.6,21.1,00.0,31.3,24.2,12.0,-000.4,0009.44,0005.89,0005.52
2023-03-13 13:31:00,,0826.1,4.99,0.00,22.5,21.0,00.0,31.3,24.2,12.0,-000.2,0009.30,0005.90,0005.52
2023-03-13 13:32:00,,0826.1,5.01,0.00,22.5,21.0,00.0,31.3,24.2,12.1,-000.4,0009.16,0005.89,0005.52
2023-03-13 13:33:00,,0826.0,5.00,0.00,22.5,20.9,00.0,31.3,24.2,12.1,-000.6,0009.05,0005.89,0005.52
2023-03-13 13:34:00,,0826.0,4.99,0.00,22.4,20.8,00.0,31.2,24.1,12.1,-000.7,0008.69,0005.88,0005.52
2023-03-13 13:35:00,,0826.1,4.99,0.00,22.4,20.8,00.0,31.2,24.1,12.2,-000.3,0008.57,0005.89,0005.53
2023-03-13 13:36:00,,0826.1,5.00,0.00,22.4,20.7,00.0,31.2,24.1,12.2,0001.1,0008.60,0005.90,0005.52
2023-03-13 13:37:00,,0826.0,5.00,0.00,22.4,20.7,00.0,31.2,24.1,12.2,0001.1,0008.58,0005.89,0005.53
2023-03-13 13:38:00,,0826.1,5.01,0.00,22.4,20.7,00.0,31.2,24.1,12.2,0000.9,0008.62,0005.90,0005.54
2023-03-13 13:39:00,,0826.0,5.01,0.00,22.4,21.6,00.0,31.2,24.2,12.2,0000.7,0008.60,0005.92,0005.56
2023-03-13 13:40:00,,0826.1,4.99,0.00,22.5,22.7,00.0,31.2,24.5,12.1,0000.5,0008.56,0005.93,0005.57
2023-03-13 13:41:00,,0826.2,4.98,0.00,22.6,23.3,00.0,31.2,24.7,12.0,0001.0,0008.51,0005.93,0005.59
2023-03-13 13:42:00,,0826.1,5.02,0.00,22.7,22.8,00.0,31.2,24.6,12.0,0000.5,0008.38,0005.93,0005.61
2023-03-13 13:43:00,,0826.2,4.99,0.00,22.7,22.4,00.0,31.3,24.6,12.0,0000.5,0008.35,0005.94,0005.62
2023-03-13 13:44:00,,0826.2,5.00,0.00,22.7,22.0,00.0,31.3,24.5,12.0,0000.4,0008.31,0005.94,0005.62
2023-03-13 13:45:00,,0826.2,5.00,0.00,22.7,21.8,00.0,31.3,24.4,12.0,0000.8,0008.32,0005.96,0005.65
2023-03-13 13:46:00,,0826.2,5.00,0.00,22.7,21.6,00.0,31.3,24.4,12.0,0000.5,0008.65,0005.94,0005.67
2023-03-13 13:47:00,,0826.2,5.01,0.00,22.6,21.4,00.0,31.3,24.4,12.0,-000.5,0008.81,0005.94,0005.69
2023-03-13 13:48:00,,0826.2,5.01,0.00,22.6,21.3,00.0,31.3,24.3,12.0,-001.0,0008.81,0005.95,0005.71
2023-03-13 13:49:00,,0826.1,5.01,0.00,22.6,21.2,00.0,31.3,24.3,12.0,-001.0,0008.82,0005.96,0005.72
2023-03-13 13:50:00,,0826.1,4.96,0.00,22.6,21.1,00.0,31.3,24.3,11.9,-000.2,0008.76,0005.93,0005.70
2023-03-13 13:51:00,,0826.2,5.01,0.00,22.6,21.0,00.0,31.3,24.3,11.9,0000.2,0008.70,0005.89,0005.68
2023-03-13 13:52:00,,0826.2,4.96,0.00,22.5,21.0,00.0,31.3,24.3,11.9,-000.2,0009.26,0005.86,0005.66
2023-03-13 13:53:00,,0826.2,4.99,0.00,22.5,20.9,00.0,31.3,24.3,11.9,-000.2,0009.37,0005.86,0005.65
2023-03-13 13:54:00,,0826.2,5.00,0.00,22.5,20.9,00.0,31.3,24.2,11.9,0000.1,0009.39,0005.89,0005.66
2023-03-13 13:55:00,,0826.1,5.00,0.00,22.5,20.9,00.0,31.3,24.2,11.9,0000.1,0009.39,0005.90,0005.67
2023-03-13 13:56:00,,0826.2,5.00,0.00,22.5,20.8,00.0,31.3,24.2,11.9,0000.2,0009.53,0005.89,0005.66
2023-03-13 13:57:00,,0826.3,4.99,0.00,22.4,20.8,00.0,31.2,24.2,11.9,-000.0,0009.17,0005.89,0005.64
2023-03-13 13:58:00,,0826.2,5.01,0.00,22.4,20.8,00.0,31.2,24.2,11.9,-000.3,0008.96,0005.88,0005.64
2023-03-13 13:59:00,,0826.2,5.01,0.00,22.5,21.5,00.0,31.2,24.3,11.9,-000.3,0008.95,0005.89,0005.65
